When you browse on this site, cookies collect data to enhance your experience and personalize the content and advertising you see.
Visit our Privacy Policy to learn more. By continuing to use the site, you agree to this use of cookies and data.
  • In Hungary
  • List of Countries
  • For 7 days
  • Water Temperature
  • Satellite Maps
  • Weather Map
  • News
  • Weather Widgets
  • user-avatar
    Login

    Hourly Weather Fafe

    Today, 23 July, Tuesday

    Time Temperature Precipitation Wind Pressure Humidity
    00:00 +19°C° 0 mm 0 mps 733 mmHg 68%
    01:00 +19°C° 0 mm 0 mps 733 mmHg 69%
    02:00 +19°C° 0 mm 0 mps 732 mmHg 69%
    03:00 +19°C° 0 mm 0 mps 732 mmHg 71%
    04:00 +19°C° 0 mm 0 mps 732 mmHg 73%
    05:00 +19°C° 0 mm 0 mps 732 mmHg 74%
    06:00 +21°C° 0 mm 0 mps 733 mmHg 66%
    07:00 +26°C° 0 mm 1 mps 733 mmHg 57%
    08:00 +29°C° 0 mm 1 mps 733 mmHg 49%
    09:00 +30°C° 0 mm 1 mps 733 mmHg 44%
    10:00 +32°C° 0 mm 2 mps 733 mmHg 39%
    11:00 +34°C° 0 mm 3 mps 733 mmHg 35%
    12:00 +34°C° 0 mm 3 mps 733 mmHg 35%
    13:00 +33°C° 0 mm 4 mps 733 mmHg 36%
    14:00 +33°C° 0 mm 4 mps 733 mmHg 37%
    15:00 +32°C° 0 mm 4 mps 733 mmHg 39%
    16:00 +30°C° 0 mm 3 mps 733 mmHg 41%
    17:00 +28°C° 0 mm 3 mps 732 mmHg 43%
    18:00 +26°C° 0 mm 2 mps 733 mmHg 52%
    19:00 +23°C° 0 mm 1 mps 733 mmHg 62%
    20:00 +21°C° 0 mm 1 mps 733 mmHg 71%
    21:00 +20°C° 0 mm 1 mps 733 mmHg 74%
    22:00 +17°C° 0 mm 0 mps 733 mmHg 76%
    23:00 +17°C° 0 mm 0 mps 733 mmHg 79%

    Tomorrow, 24 July, Wednesday

    Time Temperature Precipitation Wind Pressure Humidity
    00:00 +16°C° 0 mm 0 mps 733 mmHg 79%
    01:00 +16°C° 0 mm 0 mps 732 mmHg 80%
    02:00 +16°C° 0 mm 0 mps 732 mmHg 81%
    03:00 +16°C° 0 mm 0 mps 732 mmHg 80%
    04:00 +17°C° 0 mm 0 mps 732 mmHg 79%
    05:00 +17°C° 0 mm 0 mps 732 mmHg 77%
    06:00 +20°C° 0 mm 0 mps 732 mmHg 66%
    07:00 +25°C° 0 mm 1 mps 732 mmHg 55%
    08:00 +28°C° 0 mm 1 mps 732 mmHg 44%
    09:00 +29°C° 0 mm 1 mps 732 mmHg 38%
    10:00 +31°C° 0 mm 2 mps 732 mmHg 32%
    11:00 +32°C° 0 mm 2 mps 732 mmHg 27%
    12:00 +33°C° 0 mm 3 mps 732 mmHg 27%
    13:00 +33°C° 0 mm 4 mps 731 mmHg 28%
    14:00 +33°C° 0 mm 4 mps 731 mmHg 29%
    15:00 +30°C° 0 mm 4 mps 731 mmHg 37%
    16:00 +28°C° 0 mm 3 mps 731 mmHg 45%
    17:00 +26°C° 0 mm 3 mps 731 mmHg 53%
    18:00 +24°C° 0 mm 2 mps 731 mmHg 65%
    19:00 +22°C° 0 mm 1 mps 731 mmHg 77%
    20:00 +20°C° 0 mm 1 mps 731 mmHg 89%
    21:00 +17°C° 0 mm 0 mps 731 mmHg 91%
    22:00 +17°C° 0 mm 0 mps 731 mmHg 92%
    23:00 +17°C° 0 mm 0 mps 731 mmHg 93%

    Day after tomorrow, 25 July, Thursday

    Time Temperature Precipitation Wind Pressure Humidity
    00:00 +17°C° 0 mm 0 mps 731 mmHg 94%
    01:00 +17°C° 0 mm 0 mps 731 mmHg 94%
    02:00 +17°C° 0 mm 0 mps 731 mmHg 94%
    03:00 +17°C° 0 mm 0 mps 731 mmHg 94%
    04:00 +17°C° 0 mm 0 mps 731 mmHg 94%
    05:00 +19°C° 0 mm 1 mps 731 mmHg 94%
    06:00 +21°C° 0 mm 1 mps 731 mmHg 84%
    07:00 +22°C° 0 mm 1 mps 731 mmHg 74%
    08:00 +24°C° 0 mm 2 mps 732 mmHg 64%
    09:00 +26°C° 0 mm 2 mps 732 mmHg 57%
    10:00 +27°C° 0 mm 3 mps 732 mmHg 51%
    11:00 +28°C° 0 mm 4 mps 732 mmHg 44%
    12:00 +27°C° 0 mm 4 mps 732 mmHg 51%
    13:00 +26°C° 0 mm 4 mps 732 mmHg 59%
    14:00 +25°C° 0 mm 4 mps 732 mmHg 66%
    15:00 +24°C° 0 mm 3 mps 732 mmHg 71%
    16:00 +23°C° 0 mm 2 mps 732 mmHg 75%
    17:00 +22°C° 0 mm 1 mps 732 mmHg 80%
    18:00 +21°C° 0 mm 1 mps 732 mmHg 83%
    19:00 +20°C° 0 mm 1 mps 732 mmHg 87%
    20:00 +19°C° 0 mm 1 mps 733 mmHg 91%
    21:00 +19°C° 0 mm 1 mps 733 mmHg 91%
    22:00 +18°C° 0 mm 1 mps 732 mmHg 92%
    23:00 +16°C° 0 mm 1 mps 732 mmHg 93%

    26 July, Friday

    Time Temperature Precipitation Wind Pressure Humidity
    00:00 +16°C° 0 mm 1 mps 732 mmHg 93%
    01:00 +15°C° 0 mm 1 mps 732 mmHg 93%
    02:00 +15°C° 0 mm 1 mps 732 mmHg 94%
    03:00 +15°C° 0 mm 1 mps 732 mmHg 93%
    04:00 +14°C° 0 mm 1 mps 732 mmHg 93%
    05:00 +14°C° 0 mm 1 mps 732 mmHg 93%
    06:00 +16°C° 0 mm 1 mps 732 mmHg 82%
    07:00 +19°C° 0 mm 1 mps 733 mmHg 71%
    08:00 +21°C° 0 mm 2 mps 733 mmHg 60%
    09:00 +23°C° 0 mm 2 mps 733 mmHg 55%
    10:00 +24°C° 0 mm 3 mps 733 mmHg 50%
    11:00 +26°C° 0 mm 4 mps 733 mmHg 44%
    12:00 +26°C° 0 mm 5 mps 733 mmHg 44%
    13:00 +26°C° 0 mm 5 mps 733 mmHg 44%
    14:00 +26°C° 0 mm 6 mps 733 mmHg 45%
    15:00 +25°C° 0 mm 5 mps 733 mmHg 48%
    16:00 +23°C° 0 mm 5 mps 733 mmHg 51%
    17:00 +22°C° 0 mm 4 mps 733 mmHg 53%
    18:00 +20°C° 0 mm 3 mps 733 mmHg 62%
    19:00 +17°C° 0 mm 2 mps 733 mmHg 70%
    20:00 +15°C° 0 mm 1 mps 733 mmHg 79%
    21:00 +14°C° 0 mm 1 mps 733 mmHg 82%
    22:00 +14°C° 0 mm 1 mps 733 mmHg 85%
    23:00 +13°C° 0 mm 1 mps 733 mmHg 89%

    27 July, Saturday

    Time Temperature Precipitation Wind Pressure Humidity
    00:00 +13°C° 0 mm 1 mps 733 mmHg 88%
    01:00 +12°C° 0 mm 1 mps 732 mmHg 86%
    02:00 +11°C° 0 mm 0 mps 732 mmHg 85%
    03:00 +11°C° 0 mm 0 mps 732 mmHg 83%
    04:00 +11°C° 0 mm 0 mps 732 mmHg 81%
    05:00 +11°C° 0 mm 0 mps 733 mmHg 79%
    06:00 +14°C° 0 mm 0 mps 733 mmHg 68%
    07:00 +19°C° 0 mm 1 mps 733 mmHg 56%
    08:00 +22°C° 0 mm 1 mps 733 mmHg 45%
    09:00 +23°C° 0 mm 1 mps 733 mmHg 44%
    10:00 +23°C° 0 mm 2 mps 732 mmHg 44%
    11:00 +22°C° 0 mm 3 mps 732 mmHg 44%
    12:00 +24°C° 0 mm 3 mps 732 mmHg 47%
    13:00 +24°C° 0 mm 3 mps 732 mmHg 49%
    14:00 +24°C° 0 mm 3 mps 731 mmHg 52%
    15:00 +23°C° 0 mm 2 mps 731 mmHg 59%
    16:00 +21°C° 0 mm 2 mps 731 mmHg 66%
    17:00 +21°C° 0 mm 1 mps 730 mmHg 73%
    18:00 +20°C° 0 mm 1 mps 731 mmHg 78%
    19:00 +20°C° 0 mm 1 mps 731 mmHg 82%
    20:00 +17°C° 0 mm 0 mps 731 mmHg 87%
    21:00 +17°C° 0 mm 0 mps 731 mmHg 89%
    22:00 +16°C° 0 mm 0 mps 731 mmHg 91%
    23:00 +16°C° 0 mm 0 mps 731 mmHg 93%

    28 July, Sunday

    Time Temperature Precipitation Wind Pressure Humidity
    00:00 +16°C° 0 mm 0 mps 731 mmHg 93%
    01:00 +16°C° 0 mm 0 mps 730 mmHg 93%
    02:00 +16°C° 0 mm 0 mps 730 mmHg 93%
    03:00 +16°C° 0 mm 0 mps 730 mmHg 92%
    04:00 +16°C° 0 mm 0 mps 730 mmHg 91%
    05:00 +16°C° 0 mm 0 mps 730 mmHg 90%
    06:00 +19°C° 0 mm 0 mps 731 mmHg 80%
    07:00 +21°C° 0 mm 0 mps 731 mmHg 69%
    08:00 +23°C° 0 mm 0 mps 731 mmHg 59%
    09:00 +24°C° 0 mm 0 mps 731 mmHg 56%
    10:00 +26°C° 0 mm 1 mps 731 mmHg 52%
    11:00 +27°C° 0 mm 1 mps 731 mmHg 49%
    12:00 +28°C° 0 mm 1 mps 731 mmHg 47%
    13:00 +28°C° 0 mm 2 mps 730 mmHg 45%
    14:00 +29°C° 0 mm 2 mps 730 mmHg 43%
    15:00 +28°C° 0 mm 3 mps 730 mmHg 46%
    16:00 +27°C° 0 mm 3 mps 730 mmHg 49%
    17:00 +27°C° 0 mm 4 mps 729 mmHg 52%
    18:00 +24°C° 0 mm 3 mps 730 mmHg 62%
    19:00 +22°C° 0 mm 1 mps 730 mmHg 71%
    20:00 +17°C° 0 mm 0 mps 730 mmHg 81%
    21:00 +19°C° 0 mm 1 mps 730 mmHg 83%
    22:00 +19°C° 0 mm 1 mps 730 mmHg 84%
    23:00 +18°C° 0 mm 1 mps 730 mmHg 86%
    Show more